Skip Page Navigation
NASA JPL Caltech
NASA Logo - Jet Propulsion Laboratory + View the NASA Portal
+ Center for Near-Earth Object Studies
JPL Home Earth Solar System Stars & Galaxies Technology
JPL Solar System Dynamics
BODIES ORBITS EPHEMERIDES TOOLS PHYSICAL DATA DISCOVERY FAQ SITE MAP
IMPORTANT: The SSD Announcement email list is now available. Major changes are coming in the near future, including possible hostname and/or URL changes. To be notified of such changes, subscribe to this email list.

Please visit this page for more details.


JPL Small-Body Database Browser
Search: [ help ]  
324677 (2007 DM84)
Classification: Main-belt Asteroid          SPK-ID: 2324677
Ephemeris | Orbit Diagram | Orbital Elements | Mission Design | Physical Parameters | Discovery Circumstances | Close-Approach Data ]

[ show orbit diagram ]
Orbital Elements at Epoch 2459000.5 (2020-May-31.0) TDB
Reference: JPL 9 (heliocentric ecliptic J2000)
 Element Value Uncertainty (1-sigma)   Units 
e .07725648482251839 1.0195e-07  
a 3.197267054204792 5.2878e-08 au
q 2.950257440558081 3.373e-07 au
i 13.54713873262927 1.0258e-05 deg
node 36.63269865392719 3.4644e-05 deg
peri 148.8130200484041 5.4291e-05 deg
M 136.8608340335023 4.0763e-05 deg
tp 2458206.640809032509
(2018-Mar-29.14080903)
0.00023622 TDB
period 2088.174537050812
5.72
5.1803e-05
1.418e-07
d
yr
n .1723993821457272 4.2768e-09 deg/d
Q 3.444276667851502 5.6963e-08 au
  Orbit Determination Parameters
   # obs. used (total)      158  
   data-arc span      7142 days (19.55 yr)  
   first obs. used      1998-11-17  
   last obs. used      2018-06-07  
   planetary ephem.      DE431  
   SB-pert. ephem.      SB431-N16  
   condition code      0  
   norm. resid. RMS      .62241  
   source      ORB  
   producer      Otto Matic  
   solution date      2019-Jul-14 09:08:58  

Additional Information
 Earth MOID = 1.95787 au 
 Jupiter MOID = 1.53276 au 
 T_jup = 3.147 
[ show covariance matrix ]

Ephemeris | Orbit Diagram | Orbital Elements | Mission Design | Physical Parameters | Discovery Circumstances | Close-Approach Data ]

Physical Parameter Table
Parameter Symbol Value Units Sigma Reference Notes
absolute magnitude H 15.5   n/a MPO434050  

324677 (2007 DM84)          Discovered 2007-Feb-25 by Mt. Lemmon Survey at Mount Lemmon
Reference: 20120406/Numbers.arcLast Updated: 2012-04-09

[ hide close-approach data ]
Close-Approach Data   ...sorted by Date/Time (TDB)
Date/Time (TDB) Time Uncertainty
(days_HH:MM)
Body Nominal Distance (au) Minimum Distance (au) Maximum Distance (au) V-relative (km/s) V-infinity (km/s) JD (TDB) Time Uncertainty (minutes) Semi-major axis (km) Semi-minor axis (km) range-LOV angle (deg) N-sigma BP Orbit Ref. Reference Modified
1941-Sep-06 23:16 00:07 Jupiter 1.96426722762335 1.96426276306462 1.96427169223724 4.3055335336746 4.20418695680064 2430244.469740846 6.76550988438049 575.44167781062 26.4240564311028 -67.4798954306771 2193362.14722079 T 9 CATAB v2.0e-lin.ifort 2019-Jul-14 09:09:01 2019-Jul-14 09:09
1952-Oct-12 18:57 00:05 Jupiter 1.71854943503906 1.71854676021065 1.7185521099545 4.19751283782695 4.07840321634047 2434298.289790218 5.2883454296209 662.306679880548 32.0141028560714 -78.9892938161866 1483716.20666764 T 9 CATAB v2.0e-lin.ifort 2019-Jul-14 09:09:01 2019-Jul-14 09:09
1963-Dec-12 01:08 00:04 Jupiter 1.61022985103367 1.61022884689586 1.61023085520195 3.9580697082091 3.82286072566163 2438375.547041699 4.053448287473 550.621967805536 30.2279471537853 -86.2794796918865 1245547.44572501 T 9 CATAB v2.0e-lin.ifort 2019-Jul-14 09:09:01 2019-Jul-14 09:09
1975-Feb-09 04:52 00:03 Jupiter 1.66978545378967 1.66978402700569 1.66978688067312 3.51528148960934 3.36788886268299 2442452.702891173 3.24336959133297 1024.04742990289 47.725458172347 -86.5998623250277 1274565.90074433 T 9 CATAB v2.0e-lin.ifort 2019-Jul-14 09:09:01 2019-Jul-14 09:09
1986-Mar-05 06:12 00:03 Jupiter 1.85866752054589 1.85866606278979 1.85866897830538 2.86179065144573 2.69785394298446 2446494.758508128 2.60232092846874 295.435981872381 58.6875645973934 -79.6540542573153 1183739.65242023 T 9 CATAB v2.0e-lin.ifort 2019-Jul-14 09:09:01 2019-Jul-14 09:09
2107-Dec-01 17:16 00:06 Jupiter 1.99200784809728 1.99200343097321 1.99201226525862 4.06384825453948 3.95783296435797 2490960.219727648 6.37097588975811 491.765827082269 26.7196730748436 -63.7813332377741 2098616.01497369 T 9 CATAB v2.0e-lin.ifort 2019-Jul-14 09:09:01 2019-Jul-14 09:09
2118-Dec-31 13:59 00:07 Jupiter 1.73037625808542 1.73037247305737 1.73038004326534 4.08346885901625 3.96178167811407 2495008.082711746 6.55326981187316 862.575311837895 33.1790658392087 -77.7199347795462 1478051.21296256 T 9 CATAB v2.0e-lin.ifort 2019-Jul-14 09:09:01 2019-Jul-14 09:09
2130-Mar-01 00:22 00:07 Jupiter 1.59379906438376 1.59379765146517 1.59380047742095 3.98619356755725 3.85056381117671 2499085.515326946 6.98543177538629 836.469499572278 29.289448626119 -86.0881926053092 1194851.40669772 T 9 CATAB v2.0e-lin.ifort 2019-Jul-14 09:09:01 2019-Jul-14 09:09
2141-May-05 10:01 00:08 Jupiter 1.63350036865096 1.63349747427217 1.63350326344164 3.70687771977103 3.56424999947798 2503168.917227603 8.37724491757085 1532.55617695763 70.0190292876605 -84.5908338262554 1369300.26579574 T 9 CATAB v2.0e-lin.ifort 2019-Jul-14 09:09:01 2019-Jul-14 09:09
2152-Jun-11 10:01 00:11 Jupiter 1.82006186934802 1.8200560325497 1.82006770647099 3.202818764477 3.05406052741939 2507223.917369425 10.9480167753524 1315.51143776368 66.8524252705258 -75.6278677428966 1243799.3157608 T 9 CATAB v2.0e-lin.ifort 2019-Jul-14 09:09:01 2019-Jul-14 09:09
Ephemeris | Orbit Diagram | Orbital Elements | Mission Design | Physical Parameters | Discovery Circumstances | Close-Approach Data ]
ABOUT SSD CREDITS/AWARDS PRIVACY/COPYRIGHT GLOSSARY LINKS
FirstGov 2020-Mar-29 15:49 UT
(server date/time)  
NASA Home Page
Site Manager:   Ryan S. Park
Webmaster  Alan B. Chamberlin